This demonstration page uses our WeatherBlox Daily Observations layout. Learn more.

Left ArrowRight Arrow

40.92501, -98.34201

Hourly Observations for May 9, 2021

Temp ( °F °C ) Dew Point ( °F °C ) Humidity (%) Winds ( mph kmh ) Pressure ( in mb ) Visibility ( mi km ) Precip ( " mm )
12:53 am 00:53 Cloudy 44 6.7 40 4.4 85 85 NNE 17 28 29.87 1011 10 16.0934 N/A
1:53 am 01:53 Cloudy 43 6.1 39 3.9 86 86 NNE 18 30 29.9 1013 10 16.0934 N/A
2:53 am 02:53 Cloudy with Mist and Fog 43 6.1 39 3.9 86 86 N 20 31 29.92 1013 5 8.0467 N/A
3:17 am 03:17 Cloudy with Light Rain 42 5.6 39 3.9 89 89 N 13 20 29.95 1014 2.5 4.02335 0.001 0.001
3:22 am 03:22 Cloudy with Light Rain 42 5.6 39 3.9 89 89 N 17 28 29.95 1014 3 4.82802 0.001 0.001
3:53 am 03:53 Cloudy with Mist and Fog 42 5.6 39 3.9 89 89 N 16 26 29.93 1014 3 4.82802 0.001 0.001
4:05 am 04:05 Cloudy with Light Rain 42 5.6 39 3.9 89 89 N 16 26 29.97 1015 2.5 4.02335 0.001 0.001
4:13 am 04:13 Cloudy with Mist and Fog 42 5.6 39 3.9 89 89 N 18 30 29.97 1015 3 4.82802 0.001 0.001
4:53 am 04:53 Cloudy 41 5 38 3.3 89 89 N 18 30 29.97 1015 7 11.26538 0.001 0.001
5:53 am 05:53 Cloudy 41 5 38 3.3 89 89 N 14 22 29.99 1016 10 16.0934 N/A
6:53 am 06:53 Cloudy 41 5 38 3.3 89 89 N 17 28 30.02 1017 9 14.48406 N/A
7:41 am 07:41 Cloudy with Mist and Fog 41 5 38 3.3 89 89 N 14 22 30.07 1018 2 3.21868 N/A
7:53 am 07:53 Cloudy with Mist and Fog 41 5 38 3.3 89 89 N 15 24 30.06 1018 3 4.82802 N/A
8:53 am 08:53 Cloudy with Mist and Fog 42 5.6 38 3.3 85 85 NNE 14 22 30.1 1019 6 9.65604 N/A
9:14 am 09:14 Cloudy with Mist and Fog 42 5.6 39 3.9 89 89 NNE 12 19 30.12 1020 2.5 4.02335 N/A
9:22 am 09:22 Cloudy with Mist and Fog 42 5.6 39 3.9 89 89 NNE 13 20 30.12 1020 3 4.82802 N/A
9:30 am 09:30 Cloudy with Mist and Fog 42 5.6 39 3.9 89 89 N 14 22 30.12 1020 2.5 4.02335 N/A
9:53 am 09:53 Cloudy with Mist and Fog 42 5.6 39 3.9 89 89 NNE 14 22 30.12 1020 2.5 4.02335 N/A
10:16 am 10:16 Cloudy with Mist and Fog 43 6.1 40 4.4 89 89 NNE 13 20 30.13 1020 3 4.82802 N/A
10:45 am 10:45 Cloudy 44 6.7 39 3.9 83 83 NNE 12 19 30.14 1021 10 16.0934 N/A
10:53 am 10:53 Cloudy 44 6.7 39 3.9 83 83 NNE 15 24 30.14 1021 10 16.0934 N/A
11:11 am 11:11 Cloudy 44 6.7 39 3.9 83 83 NNE 14 22 30.15 1021 10 16.0934 N/A
11:53 am 11:53 Cloudy 45 7.2 38 3.3 77 77 NNE 10 17 30.17 1022 10 16.0934 N/A
12:53 pm 12:53 Cloudy 46 7.8 38 3.3 73 73 NNE 14 22 30.16 1021 10 16.0934 N/A
1:53 pm 13:53 Cloudy 48 8.9 38 3.3 68 68 NE 8 13 30.16 1021 10 16.0934 N/A
2:20 pm 14:20 Cloudy 50 10 38 3.3 63 63 NE 8 13 30.13 1020 10 16.0934 N/A
2:53 pm 14:53 Cloudy 50 10 38 3.3 63 63 NE 12 19 30.13 1020 10 16.0934 N/A
5:53 pm 17:53 Cloudy 52 11.1 37 2.8 57 57 NNW 12 19 30.14 1021 10 16.0934 N/A
6:53 pm 18:53 Cloudy 52 11.1 37 2.8 57 57 N 8 13 30.14 1021 10 16.0934 N/A
7:53 pm 19:53 Cloudy 51 10.6 38 3.3 61 61 N 6 9 30.16 1021 10 16.0934 N/A
8:53 pm 20:53 Cloudy 49 9.4 39 3.9 69 69 N 5 7 30.16 1022 10 16.0934 N/A
9:53 pm 21:53 Clear 45 7.2 36 2.2 71 71 NNW 3 6 30.19 1023 10 16.0934 N/A
10:53 pm 22:53 Clear 41 5 36 2.2 82 82 W 5 7 30.22 1023 10 16.0934 N/A
11:53 pm 23:53 Clear 41 5 35 1.7 79 79 W 5 7 30.22 1023 10 16.0934 N/A

Powered by AerisWeather